Year,Month,Day,Hour,Minute,Value (Times are PST for temperature in C)
2013,07,16,00,00,16.00
2013,07,16,00,05,15.90
2013,07,16,00,06,16.00
2013,07,16,00,07,16.00
2013,07,16,00,08,16.10
2013,07,16,00,09,16.10
2013,07,16,00,10,16.10
2013,07,16,00,11,16.10
2013,07,16,00,12,16.00
2013,07,16,00,13,16.00
2013,07,16,00,14,15.90
2013,07,16,00,15,15.90
2013,07,16,00,16,15.80
2013,07,16,00,17,15.80
2013,07,16,00,18,15.70
2013,07,16,00,19,15.70
2013,07,16,00,20,15.70
2013,07,16,00,21,15.70
2013,07,16,00,22,15.70
2013,07,16,00,23,15.70
2013,07,16,00,24,15.70
2013,07,16,00,25,15.70
2013,07,16,00,26,15.70
2013,07,16,00,27,15.80
2013,07,16,00,28,15.90
2013,07,16,00,29,15.90
2013,07,16,00,30,16.00
2013,07,16,00,31,16.10
2013,07,16,00,32,16.00
2013,07,16,00,33,16.00
2013,07,16,00,34,16.10
2013,07,16,00,35,16.10
2013,07,16,00,36,16.10
2013,07,16,00,37,16.10
2013,07,16,00,38,16.10
2013,07,16,00,39,16.10
2013,07,16,00,40,16.00
2013,07,16,00,41,16.00
2013,07,16,00,42,15.90
2013,07,16,00,43,15.90
2013,07,16,00,44,15.80
2013,07,16,00,45,15.80
2013,07,16,00,46,15.70
2013,07,16,00,47,15.70
2013,07,16,00,48,15.70
2013,07,16,00,49,15.70
2013,07,16,00,50,15.60
2013,07,16,00,51,15.60
2013,07,16,00,52,15.60
2013,07,16,00,53,15.60
2013,07,16,00,54,15.70
2013,07,16,00,55,15.70
2013,07,16,00,56,15.80
2013,07,16,00,57,15.80
2013,07,16,00,58,15.80
2013,07,16,00,59,15.80
2013,07,16,01,00,15.70
2013,07,16,01,01,15.70
2013,07,16,01,02,15.60
2013,07,16,01,03,15.60
2013,07,16,01,04,15.60
2013,07,16,01,05,15.50
2013,07,16,01,06,15.50
2013,07,16,01,07,15.40
2013,07,16,01,08,15.40
2013,07,16,01,09,15.40
2013,07,16,01,10,15.30
2013,07,16,01,11,15.30
2013,07,16,01,12,15.30
2013,07,16,01,13,15.30
2013,07,16,01,14,15.30
2013,07,16,01,15,15.30
2013,07,16,01,16,15.20
2013,07,16,01,17,15.20
2013,07,16,01,18,15.20
2013,07,16,01,19,15.20
2013,07,16,01,20,15.20
2013,07,16,01,21,15.20
2013,07,16,01,22,15.20
2013,07,16,01,23,15.20
2013,07,16,01,24,15.20
2013,07,16,01,25,15.20
2013,07,16,01,26,15.10
2013,07,16,01,27,15.10
2013,07,16,01,28,15.10
2013,07,16,01,29,15.10
2013,07,16,01,30,15.10
2013,07,16,01,31,15.10
2013,07,16,01,32,15.10
2013,07,16,01,33,15.10
2013,07,16,01,34,15.10
2013,07,16,01,35,15.10
2013,07,16,01,36,15.10
2013,07,16,01,37,15.10
2013,07,16,01,38,15.10
2013,07,16,01,39,15.10
2013,07,16,01,40,15.10
2013,07,16,01,41,15.10
2013,07,16,01,42,15.00
2013,07,16,01,43,15.00
2013,07,16,01,44,15.00
2013,07,16,01,45,15.00
2013,07,16,01,46,15.00
2013,07,16,01,47,15.00
2013,07,16,01,48,15.10
2013,07,16,01,49,15.10
2013,07,16,01,50,15.10
2013,07,16,01,51,15.10
2013,07,16,01,52,15.10
2013,07,16,01,53,15.10
2013,07,16,01,54,15.10
2013,07,16,01,55,15.10
2013,07,16,01,56,15.10
2013,07,16,01,57,15.10
2013,07,16,01,58,15.10
2013,07,16,01,59,15.10
2013,07,16,02,00,15.20
2013,07,16,02,01,15.20
2013,07,16,02,02,15.30
2013,07,16,02,03,15.30
2013,07,16,02,04,15.30
2013,07,16,02,05,15.30
2013,07,16,02,06,15.30
2013,07,16,02,07,15.30
2013,07,16,02,08,15.30
2013,07,16,02,09,15.30
2013,07,16,02,10,15.30
2013,07,16,02,11,15.20
2013,07,16,02,12,15.20
2013,07,16,02,13,15.20
2013,07,16,02,14,15.30
2013,07,16,02,15,15.30
2013,07,16,02,16,15.30
2013,07,16,02,17,15.30
2013,07,16,02,18,15.20
2013,07,16,02,19,15.20
2013,07,16,02,20,15.30
2013,07,16,02,21,15.40
2013,07,16,02,22,15.50
2013,07,16,02,23,15.50
2013,07,16,02,24,15.50
2013,07,16,02,25,15.60
2013,07,16,02,26,15.60
2013,07,16,02,27,15.60
2013,07,16,02,28,15.60
2013,07,16,02,29,15.60
2013,07,16,02,30,15.60
2013,07,16,02,31,15.60
2013,07,16,02,32,15.60
2013,07,16,02,33,15.60
2013,07,16,02,34,15.70
2013,07,16,02,35,15.80
2013,07,16,02,36,15.80
2013,07,16,02,37,15.90
2013,07,16,02,38,16.00
2013,07,16,02,39,16.10
2013,07,16,02,40,16.20
2013,07,16,02,41,16.30
2013,07,16,02,42,16.30
2013,07,16,02,43,16.30
2013,07,16,02,44,16.30
2013,07,16,02,45,16.30
2013,07,16,02,46,16.30
2013,07,16,02,47,16.30
2013,07,16,02,48,16.30
2013,07,16,02,49,16.30
2013,07,16,02,50,16.30
2013,07,16,02,51,16.40
2013,07,16,02,52,16.50
2013,07,16,02,53,16.50
2013,07,16,02,54,16.50
2013,07,16,02,55,16.50
2013,07,16,02,56,16.50
2013,07,16,02,57,16.50
2013,07,16,02,58,16.50
2013,07,16,02,59,16.50
2013,07,16,03,00,16.50
2013,07,16,03,01,16.60
2013,07,16,03,02,16.60
2013,07,16,03,03,16.60
2013,07,16,03,04,16.60
2013,07,16,03,05,16.60
2013,07,16,03,06,16.60
2013,07,16,03,07,16.60
2013,07,16,03,08,16.60
2013,07,16,03,09,16.60
2013,07,16,03,10,16.50
2013,07,16,03,11,16.40
2013,07,16,03,12,16.40
2013,07,16,03,13,16.30
2013,07,16,03,14,16.30
2013,07,16,03,15,16.30
2013,07,16,03,16,16.20
2013,07,16,03,17,16.20
2013,07,16,03,18,16.20
2013,07,16,03,19,16.20
2013,07,16,03,20,16.20
2013,07,16,03,21,16.20
2013,07,16,03,22,16.20
2013,07,16,03,23,16.20
2013,07,16,03,24,16.20
2013,07,16,03,25,16.20
2013,07,16,03,26,16.20
2013,07,16,03,27,16.20
2013,07,16,03,28,16.20
2013,07,16,03,29,16.20
2013,07,16,03,30,16.20
2013,07,16,03,31,16.20
2013,07,16,03,32,16.10
2013,07,16,03,33,16.10
2013,07,16,03,34,16.10
2013,07,16,03,35,16.10
2013,07,16,03,36,16.10
2013,07,16,03,37,16.10
2013,07,16,03,38,16.00
2013,07,16,03,39,15.90
2013,07,16,03,40,15.80
2013,07,16,03,41,15.80
2013,07,16,03,42,15.70
2013,07,16,03,43,15.70
2013,07,16,03,44,15.70
2013,07,16,03,45,15.70
2013,07,16,03,46,15.70
2013,07,16,03,47,15.70
2013,07,16,03,48,15.70
2013,07,16,03,49,15.60
2013,07,16,03,50,15.70
2013,07,16,03,51,15.60
2013,07,16,03,52,15.60
2013,07,16,03,53,15.70
2013,07,16,03,54,15.70
2013,07,16,03,55,15.70
2013,07,16,03,56,15.70
2013,07,16,03,57,15.80
2013,07,16,03,58,15.80
2013,07,16,03,59,15.70
2013,07,16,04,00,15.70
2013,07,16,04,01,15.60
2013,07,16,04,02,15.60
2013,07,16,04,03,15.60
2013,07,16,04,04,15.60
2013,07,16,04,05,15.60
2013,07,16,04,06,15.60
2013,07,16,04,07,15.70
2013,07,16,04,08,15.60
2013,07,16,04,09,15.60
2013,07,16,04,10,15.60
2013,07,16,04,11,15.50
2013,07,16,04,12,15.50
2013,07,16,04,13,15.40
2013,07,16,04,14,15.40
2013,07,16,04,15,15.30
2013,07,16,04,16,15.30
2013,07,16,04,17,15.20
2013,07,16,04,18,15.20
2013,07,16,04,19,15.20
2013,07,16,04,20,15.10
2013,07,16,04,21,15.10
2013,07,16,04,22,15.00
2013,07,16,04,23,14.90
2013,07,16,04,24,14.90
2013,07,16,04,25,14.80
2013,07,16,04,26,14.80
2013,07,16,04,27,14.70
2013,07,16,04,28,14.70
2013,07,16,04,29,14.70
2013,07,16,04,30,14.60
2013,07,16,04,31,14.60
2013,07,16,04,32,14.60
2013,07,16,04,33,14.50
2013,07,16,04,34,14.50
2013,07,16,04,35,14.50
2013,07,16,04,36,14.40
2013,07,16,04,37,14.40
2013,07,16,04,38,14.40
2013,07,16,04,39,14.40
2013,07,16,04,40,14.40
2013,07,16,04,41,14.40
2013,07,16,04,42,14.40
2013,07,16,04,43,14.30
2013,07,16,04,44,14.30
2013,07,16,04,45,14.30
2013,07,16,04,46,14.30
2013,07,16,04,47,14.30
2013,07,16,04,48,14.20
2013,07,16,04,49,14.20
2013,07,16,04,50,14.20
2013,07,16,04,51,14.20
2013,07,16,04,52,14.10
2013,07,16,04,53,14.10
2013,07,16,04,54,14.10
2013,07,16,04,55,14.10
2013,07,16,04,56,14.10
2013,07,16,04,57,14.10
2013,07,16,04,58,14.10
2013,07,16,04,59,14.00
2013,07,16,05,00,14.00
2013,07,16,05,01,14.00
2013,07,16,05,02,14.00
2013,07,16,05,03,13.90
2013,07,16,05,04,13.90
2013,07,16,05,05,13.90
2013,07,16,05,06,13.90
2013,07,16,05,07,13.90
2013,07,16,05,08,13.90
2013,07,16,05,09,13.90
2013,07,16,05,10,13.90
2013,07,16,05,11,13.90
2013,07,16,05,12,13.90
2013,07,16,05,13,13.90
2013,07,16,05,14,13.90
2013,07,16,05,15,13.80
2013,07,16,05,16,13.80
2013,07,16,05,17,13.80
2013,07,16,05,18,13.80
2013,07,16,05,19,13.80
2013,07,16,05,20,13.80
2013,07,16,05,21,13.80
2013,07,16,05,22,13.70
2013,07,16,05,23,13.70
2013,07,16,05,24,13.70
2013,07,16,05,25,13.70
2013,07,16,05,26,13.60
2013,07,16,05,27,13.60
2013,07,16,05,28,13.60
2013,07,16,05,29,13.60
2013,07,16,05,30,13.50
2013,07,16,05,31,13.50
2013,07,16,05,32,13.50
2013,07,16,05,33,13.50
2013,07,16,05,34,13.40
2013,07,16,05,35,13.40
2013,07,16,05,36,13.40
2013,07,16,05,37,13.40
2013,07,16,05,38,13.40
2013,07,16,05,39,13.40
2013,07,16,05,40,13.40
2013,07,16,05,41,13.40
2013,07,16,05,42,13.40
2013,07,16,05,43,13.40
2013,07,16,05,44,13.40
2013,07,16,05,45,13.40
2013,07,16,05,46,13.40
2013,07,16,05,47,13.40
2013,07,16,05,48,13.40
2013,07,16,05,49,13.40
2013,07,16,05,50,13.40
2013,07,16,05,51,13.40
2013,07,16,05,52,13.40
2013,07,16,05,53,13.40
2013,07,16,05,54,13.40
2013,07,16,05,55,13.40
2013,07,16,05,56,13.40
2013,07,16,05,57,13.50
2013,07,16,05,58,13.40
2013,07,16,05,59,13.40
2013,07,16,06,00,13.40
2013,07,16,06,01,13.40
2013,07,16,06,02,13.40
2013,07,16,06,03,13.40
2013,07,16,06,04,13.40
2013,07,16,06,05,13.40
2013,07,16,06,06,13.40
2013,07,16,06,07,13.40
2013,07,16,06,08,13.50
2013,07,16,06,09,13.50
2013,07,16,06,10,13.50
2013,07,16,06,11,13.50
2013,07,16,06,12,13.50
2013,07,16,06,13,13.50
2013,07,16,06,14,13.60
2013,07,16,06,15,13.60
2013,07,16,06,16,13.60
2013,07,16,06,17,13.60
2013,07,16,06,18,13.60
2013,07,16,06,19,13.70
2013,07,16,06,20,13.70
2013,07,16,06,21,13.70
2013,07,16,06,22,13.70
2013,07,16,06,23,13.80
2013,07,16,06,24,13.80
2013,07,16,06,25,13.80
2013,07,16,06,26,13.80
2013,07,16,06,27,13.80
2013,07,16,06,28,13.80
2013,07,16,06,29,13.80
2013,07,16,06,30,13.80
2013,07,16,06,31,13.80
2013,07,16,06,32,13.90
2013,07,16,06,33,13.90
2013,07,16,06,34,13.90
2013,07,16,06,35,13.90
2013,07,16,06,36,14.00
2013,07,16,06,37,14.00
2013,07,16,06,38,14.10
2013,07,16,06,39,14.10
2013,07,16,06,40,14.10
2013,07,16,06,41,14.10
2013,07,16,06,42,14.20
2013,07,16,06,43,14.20
2013,07,16,06,44,14.20
2013,07,16,06,45,14.30
2013,07,16,06,46,14.30
2013,07,16,06,47,14.30
2013,07,16,06,48,14.30
2013,07,16,06,49,14.40
2013,07,16,06,50,14.40
2013,07,16,06,51,14.50
2013,07,16,06,52,14.50
2013,07,16,06,53,14.60
2013,07,16,06,54,14.70
2013,07,16,06,55,14.70
2013,07,16,06,56,14.80
2013,07,16,06,57,14.80
2013,07,16,06,58,14.90
2013,07,16,06,59,14.90
2013,07,16,07,00,14.90
2013,07,16,07,01,15.00
2013,07,16,07,02,15.10
2013,07,16,07,03,15.10
2013,07,16,07,04,15.20
2013,07,16,07,05,15.30
2013,07,16,07,06,15.40
2013,07,16,07,07,15.40
2013,07,16,07,08,15.50
2013,07,16,07,09,15.50
2013,07,16,07,10,15.60
2013,07,16,07,11,15.70
2013,07,16,07,12,15.70
2013,07,16,07,13,15.80
2013,07,16,07,14,15.80
2013,07,16,07,15,15.90
2013,07,16,07,16,16.00
2013,07,16,07,17,16.10
2013,07,16,07,18,16.10
2013,07,16,07,19,16.20
2013,07,16,07,20,16.30
2013,07,16,07,21,16.40
2013,07,16,07,22,16.40
2013,07,16,07,23,16.50
2013,07,16,07,24,16.60
2013,07,16,07,25,16.70
2013,07,16,07,26,16.70
2013,07,16,07,27,16.80
2013,07,16,07,28,16.90
2013,07,16,07,29,17.00
2013,07,16,07,30,17.10
2013,07,16,07,31,17.10
2013,07,16,07,32,17.20
2013,07,16,07,33,17.30
2013,07,16,07,34,17.30
2013,07,16,07,35,17.30
2013,07,16,07,36,17.30
2013,07,16,07,37,17.40
2013,07,16,07,38,17.40
2013,07,16,07,39,17.40
2013,07,16,07,40,17.40
2013,07,16,07,41,17.50
2013,07,16,07,42,17.50
2013,07,16,07,43,17.60
2013,07,16,07,44,17.60
2013,07,16,07,45,17.60
2013,07,16,07,46,17.60
2013,07,16,07,47,17.70
2013,07,16,07,48,17.70
2013,07,16,07,49,17.70
2013,07,16,07,50,17.80
2013,07,16,07,51,17.80
2013,07,16,07,52,17.90
2013,07,16,07,53,17.90
2013,07,16,07,54,17.90
2013,07,16,07,55,17.90
2013,07,16,07,56,17.90
2013,07,16,07,57,18.00
2013,07,16,07,58,18.00
2013,07,16,07,59,18.10
2013,07,16,08,00,18.10
2013,07,16,08,01,18.20
2013,07,16,08,02,18.20
2013,07,16,08,03,18.20
2013,07,16,08,04,18.20
2013,07,16,08,05,18.30
2013,07,16,08,06,18.30
2013,07,16,08,07,18.30
2013,07,16,08,08,18.30
2013,07,16,08,09,18.30
2013,07,16,08,10,18.30
2013,07,16,08,11,18.30
2013,07,16,08,12,18.30
2013,07,16,08,13,18.30
2013,07,16,08,14,18.40
2013,07,16,08,15,18.40
2013,07,16,08,16,18.40
2013,07,16,08,17,18.50
2013,07,16,08,18,18.60
2013,07,16,08,19,18.60
2013,07,16,08,20,18.60
2013,07,16,08,21,18.60
2013,07,16,08,22,18.60
2013,07,16,08,23,18.60
2013,07,16,08,24,18.60
2013,07,16,08,25,18.60
2013,07,16,08,26,18.60
2013,07,16,08,27,18.70
2013,07,16,08,28,18.60
2013,07,16,08,29,18.70
2013,07,16,08,30,18.70
2013,07,16,08,31,18.70
2013,07,16,08,32,18.70
2013,07,16,08,33,18.70
2013,07,16,08,34,18.70
2013,07,16,08,35,18.70
2013,07,16,08,36,18.70
2013,07,16,08,37,18.70
2013,07,16,08,38,18.70
2013,07,16,08,39,18.80
2013,07,16,08,40,18.80
2013,07,16,08,41,18.80
2013,07,16,08,42,18.80
2013,07,16,08,43,18.80
2013,07,16,08,44,18.90
2013,07,16,08,45,19.00
2013,07,16,08,46,19.00
2013,07,16,08,47,19.10
2013,07,16,08,48,19.10
2013,07,16,08,49,19.20
2013,07,16,08,50,19.20
2013,07,16,08,51,19.20
2013,07,16,08,52,19.30
2013,07,16,08,53,19.30
2013,07,16,08,54,19.30
2013,07,16,08,55,19.40
2013,07,16,08,56,19.40
2013,07,16,08,57,19.50
2013,07,16,08,58,19.50
2013,07,16,08,59,19.60
2013,07,16,09,00,19.60
2013,07,16,09,01,19.60
2013,07,16,09,02,19.60
2013,07,16,09,03,19.70
2013,07,16,09,04,19.70
2013,07,16,09,05,19.70
2013,07,16,09,06,19.70
2013,07,16,09,07,19.80
2013,07,16,09,08,19.80
2013,07,16,09,09,19.90
2013,07,16,09,10,19.90
2013,07,16,09,11,20.00
2013,07,16,09,12,20.00
2013,07,16,09,13,19.90
2013,07,16,09,14,19.90
2013,07,16,09,15,19.90
2013,07,16,09,16,19.90
2013,07,16,09,17,19.90
2013,07,16,09,18,19.90
2013,07,16,09,19,19.90
2013,07,16,09,20,19.90
2013,07,16,09,21,20.00
2013,07,16,09,22,20.00
2013,07,16,09,23,20.10
2013,07,16,09,24,20.20
2013,07,16,09,25,20.20
2013,07,16,09,26,20.30
2013,07,16,09,27,20.40
2013,07,16,09,28,20.50
2013,07,16,09,29,20.60
2013,07,16,09,30,20.60
2013,07,16,09,31,20.70
2013,07,16,09,32,20.70
2013,07,16,09,33,20.80
2013,07,16,09,34,20.80
2013,07,16,09,35,20.80
2013,07,16,09,36,20.90
2013,07,16,09,37,20.90
2013,07,16,09,38,21.00
2013,07,16,09,39,21.10
2013,07,16,09,40,21.10
2013,07,16,09,41,21.20
2013,07,16,09,42,21.20
2013,07,16,09,43,21.20
2013,07,16,09,44,21.20
2013,07,16,09,45,21.20
2013,07,16,09,46,21.30
2013,07,16,09,47,21.30
2013,07,16,09,48,21.30
2013,07,16,09,49,21.30
2013,07,16,09,50,21.30
2013,07,16,09,51,21.30
2013,07,16,09,52,21.20
2013,07,16,09,53,21.20
2013,07,16,09,54,21.20
2013,07,16,09,55,21.20
2013,07,16,09,56,21.30
2013,07,16,09,57,21.30
2013,07,16,09,58,21.40
2013,07,16,09,59,21.40
2013,07,16,10,00,21.40
2013,07,16,10,01,21.40
2013,07,16,10,02,21.40
2013,07,16,10,03,21.50
2013,07,16,10,04,21.50
2013,07,16,10,05,21.50
2013,07,16,10,06,21.60
2013,07,16,10,07,21.60
2013,07,16,10,08,21.70
2013,07,16,10,09,21.70
2013,07,16,10,10,21.80
2013,07,16,10,11,21.80
2013,07,16,10,12,21.90
2013,07,16,10,13,21.90
2013,07,16,10,14,21.90
2013,07,16,10,15,21.80
2013,07,16,10,16,21.80
2013,07,16,10,17,21.70
2013,07,16,10,18,21.70
2013,07,16,10,19,21.70
2013,07,16,10,20,21.70
2013,07,16,10,21,21.70
2013,07,16,10,22,21.60
2013,07,16,10,23,21.60
2013,07,16,10,24,21.60
2013,07,16,10,25,21.60
2013,07,16,10,26,21.50
2013,07,16,10,27,21.50
2013,07,16,10,28,21.50
2013,07,16,10,29,21.50
2013,07,16,10,30,21.50
2013,07,16,10,31,21.40
2013,07,16,10,32,21.40
2013,07,16,10,33,21.40
2013,07,16,10,34,21.50
2013,07,16,10,35,21.50
2013,07,16,10,36,21.50
2013,07,16,10,37,21.60
2013,07,16,10,38,21.60
2013,07,16,10,39,21.60
2013,07,16,10,40,21.60
2013,07,16,10,41,21.60
2013,07,16,10,42,21.70
2013,07,16,10,43,21.70
2013,07,16,10,44,21.60
2013,07,16,10,45,21.70
2013,07,16,10,46,21.80
2013,07,16,10,47,21.80
2013,07,16,10,48,21.80
2013,07,16,10,49,21.80
2013,07,16,10,50,21.80
2013,07,16,10,51,21.80
2013,07,16,10,52,21.80
2013,07,16,10,53,21.90
2013,07,16,10,54,22.00
2013,07,16,10,55,22.10
2013,07,16,10,56,22.10
2013,07,16,10,57,22.10
2013,07,16,10,58,22.10
2013,07,16,10,59,22.20
2013,07,16,11,00,22.20
2013,07,16,11,01,22.30
2013,07,16,11,02,22.30
2013,07,16,11,03,22.30
2013,07,16,11,04,22.40
2013,07,16,11,05,22.50
2013,07,16,11,06,22.50
2013,07,16,11,07,22.60
2013,07,16,11,08,22.60
2013,07,16,11,09,22.60
2013,07,16,11,10,22.70
2013,07,16,11,11,22.70
2013,07,16,11,12,22.60
2013,07,16,11,13,22.60
2013,07,16,11,14,22.60
2013,07,16,11,15,22.60
2013,07,16,11,16,22.60
2013,07,16,11,17,22.60
2013,07,16,11,18,22.50
2013,07,16,11,19,22.50
2013,07,16,11,20,22.50
2013,07,16,11,21,22.50
2013,07,16,11,22,22.60
2013,07,16,11,23,22.60
2013,07,16,11,24,22.70
2013,07,16,11,25,22.70
2013,07,16,11,26,22.80
2013,07,16,11,27,22.90
2013,07,16,11,28,22.90
2013,07,16,11,29,22.90
2013,07,16,11,30,22.90
2013,07,16,11,31,22.90
2013,07,16,11,32,22.90
2013,07,16,11,33,22.90
2013,07,16,11,34,22.90
2013,07,16,11,35,22.90
2013,07,16,11,36,22.90
2013,07,16,11,37,22.90
2013,07,16,11,38,22.90
2013,07,16,11,39,22.90
2013,07,16,11,40,23.00
2013,07,16,11,41,23.10
2013,07,16,11,42,23.20
2013,07,16,11,43,23.20
2013,07,16,11,44,23.10
2013,07,16,11,45,23.10
2013,07,16,11,46,23.10
2013,07,16,11,47,23.10
2013,07,16,11,48,23.00
2013,07,16,11,49,23.10
2013,07,16,11,50,23.10
2013,07,16,11,51,23.20
2013,07,16,11,52,23.20
2013,07,16,11,53,23.30
2013,07,16,11,54,23.30
2013,07,16,11,55,23.40
2013,07,16,11,56,23.40
2013,07,16,11,57,23.40
2013,07,16,11,58,23.40
2013,07,16,11,59,23.50
2013,07,16,12,00,23.50
2013,07,16,12,01,23.60
2013,07,16,12,02,23.60
2013,07,16,12,03,23.60
2013,07,16,12,04,23.70
2013,07,16,12,05,23.70
2013,07,16,12,06,23.70
2013,07,16,12,07,23.70
2013,07,16,12,08,23.70
2013,07,16,12,09,23.70
2013,07,16,12,10,23.80
2013,07,16,12,11,23.70
2013,07,16,12,12,23.70
2013,07,16,12,13,23.70
2013,07,16,12,14,23.70
2013,07,16,12,15,23.70
2013,07,16,12,16,23.70
2013,07,16,12,17,23.70
2013,07,16,12,18,23.70
2013,07,16,12,19,23.80
2013,07,16,12,20,23.80
2013,07,16,12,21,23.80
2013,07,16,12,22,23.80
2013,07,16,12,23,23.90
2013,07,16,12,24,23.90
2013,07,16,12,25,23.90
2013,07,16,12,26,23.80
2013,07,16,12,27,23.80
2013,07,16,12,28,23.80
2013,07,16,12,29,23.90
2013,07,16,12,30,23.90
2013,07,16,12,31,24.00
2013,07,16,12,32,24.00
2013,07,16,12,33,24.00
2013,07,16,12,34,24.00
2013,07,16,12,35,24.00
2013,07,16,12,36,24.00
2013,07,16,12,37,24.00
2013,07,16,12,38,24.00
2013,07,16,12,39,24.00
2013,07,16,12,40,24.00
2013,07,16,12,41,24.00
2013,07,16,12,42,23.90
2013,07,16,12,43,24.00
2013,07,16,12,44,24.00
2013,07,16,12,45,23.90
2013,07,16,12,46,23.90
2013,07,16,12,47,23.90
2013,07,16,12,48,24.00
2013,07,16,12,49,24.10
2013,07,16,12,50,24.10
2013,07,16,12,51,24.20
2013,07,16,12,52,24.30
2013,07,16,12,53,24.30
2013,07,16,12,54,24.30
2013,07,16,12,55,24.30
2013,07,16,12,56,24.40
2013,07,16,12,57,24.50
2013,07,16,12,58,24.50
2013,07,16,12,59,24.50
2013,07,16,13,00,24.40
2013,07,16,13,01,24.50
2013,07,16,13,02,24.50
2013,07,16,13,03,24.60
2013,07,16,13,04,24.70
2013,07,16,13,05,24.80
2013,07,16,13,06,24.90
2013,07,16,13,07,24.80
2013,07,16,13,08,24.80
2013,07,16,13,09,24.90
2013,07,16,13,10,24.90
2013,07,16,13,11,24.90
2013,07,16,13,12,24.80
2013,07,16,13,13,24.80
2013,07,16,13,14,24.80
2013,07,16,13,15,24.90
2013,07,16,13,16,25.00
2013,07,16,13,17,25.10
2013,07,16,13,18,25.00
2013,07,16,13,19,25.00
2013,07,16,13,20,25.00
2013,07,16,13,21,25.10
2013,07,16,13,22,25.10
2013,07,16,13,23,25.10
2013,07,16,13,24,25.10
2013,07,16,13,25,25.10
2013,07,16,13,26,25.10
2013,07,16,13,27,25.10
2013,07,16,13,28,25.20
2013,07,16,13,29,25.30
2013,07,16,13,30,25.30
2013,07,16,13,31,25.30
2013,07,16,13,32,25.30
2013,07,16,13,33,25.30
2013,07,16,13,34,25.20
2013,07,16,13,35,25.20
2013,07,16,13,36,25.30
2013,07,16,13,37,25.30
2013,07,16,13,38,25.50
2013,07,16,13,39,25.70
2013,07,16,13,40,25.80
2013,07,16,13,41,25.80
2013,07,16,13,42,25.70
2013,07,16,13,43,25.60
2013,07,16,13,44,25.60
2013,07,16,13,45,25.60
2013,07,16,13,46,25.70
2013,07,16,13,47,25.80
2013,07,16,13,48,25.80
2013,07,16,13,49,25.80
2013,07,16,13,50,25.80
2013,07,16,13,51,25.80
2013,07,16,13,52,25.90
2013,07,16,13,53,25.90
2013,07,16,13,54,25.90
2013,07,16,13,55,25.90
2013,07,16,13,56,26.00
2013,07,16,13,57,26.00
2013,07,16,13,58,26.10
2013,07,16,13,59,26.10
2013,07,16,14,00,26.00
2013,07,16,14,01,26.00
2013,07,16,14,02,26.00
2013,07,16,14,03,26.00
2013,07,16,14,04,26.10
2013,07,16,14,05,26.10
2013,07,16,14,06,26.10
2013,07,16,14,07,26.20
2013,07,16,14,08,26.20
2013,07,16,14,09,26.10
2013,07,16,14,10,26.10
2013,07,16,14,11,26.00
2013,07,16,14,12,25.90
2013,07,16,14,13,25.80
2013,07,16,14,14,25.80
2013,07,16,14,15,25.80
2013,07,16,14,16,25.80
2013,07,16,14,17,25.80
2013,07,16,14,18,25.80
2013,07,16,14,19,25.90
2013,07,16,14,20,25.90
2013,07,16,14,21,25.90
2013,07,16,14,22,25.90
2013,07,16,14,23,26.00
2013,07,16,14,24,26.10
2013,07,16,14,25,26.20
2013,07,16,14,26,26.20
2013,07,16,14,27,26.20
2013,07,16,14,28,26.20
2013,07,16,14,29,26.20
2013,07,16,14,30,26.30
2013,07,16,14,31,26.30
2013,07,16,14,32,26.30
2013,07,16,14,33,26.20
2013,07,16,14,34,26.20
2013,07,16,14,35,26.20
2013,07,16,14,36,26.10
2013,07,16,14,37,26.00
2013,07,16,14,38,25.90
2013,07,16,14,39,25.80
2013,07,16,14,40,25.80
2013,07,16,14,41,25.80
2013,07,16,14,42,25.90
2013,07,16,14,43,25.90
2013,07,16,14,44,25.90
2013,07,16,14,45,25.90
2013,07,16,14,46,25.90
2013,07,16,14,47,25.90
2013,07,16,14,48,25.90
2013,07,16,14,49,25.80
2013,07,16,14,50,25.80
2013,07,16,14,51,25.80
2013,07,16,14,52,25.80
2013,07,16,14,53,25.90
2013,07,16,14,54,25.90
2013,07,16,14,55,25.90
2013,07,16,14,56,25.90
2013,07,16,14,57,26.00
2013,07,16,14,58,26.10
2013,07,16,14,59,26.10
2013,07,16,15,00,26.20
2013,07,16,15,01,26.30
2013,07,16,15,02,26.30
2013,07,16,15,03,26.40
2013,07,16,15,04,26.40
2013,07,16,15,05,26.40
2013,07,16,15,06,26.40
2013,07,16,15,07,26.40
2013,07,16,15,08,26.30
2013,07,16,15,09,26.30
2013,07,16,15,10,26.30
2013,07,16,15,11,26.30
2013,07,16,15,12,26.20
2013,07,16,15,13,26.20
2013,07,16,15,14,26.30
2013,07,16,15,15,26.30
2013,07,16,15,16,26.30
2013,07,16,15,17,26.40
2013,07,16,15,18,26.40
2013,07,16,15,19,26.50
2013,07,16,15,20,26.50
2013,07,16,15,21,26.50
2013,07,16,15,22,26.40
2013,07,16,15,23,26.30
2013,07,16,15,24,26.20
2013,07,16,15,25,26.10
2013,07,16,15,26,26.10
2013,07,16,15,27,26.00
2013,07,16,15,28,26.00
2013,07,16,15,29,25.90
2013,07,16,15,30,25.90
2013,07,16,15,31,25.80
2013,07,16,15,32,25.80
2013,07,16,15,33,25.80
2013,07,16,15,34,25.80
2013,07,16,15,35,25.80
2013,07,16,15,36,25.80
2013,07,16,15,37,25.90
2013,07,16,15,38,26.10
2013,07,16,15,39,26.30
2013,07,16,15,40,26.40
2013,07,16,15,41,26.50
2013,07,16,15,42,26.50
2013,07,16,15,43,26.50
2013,07,16,15,44,26.40
2013,07,16,15,45,26.40
2013,07,16,15,46,26.30
2013,07,16,15,47,26.30
2013,07,16,15,48,26.20
2013,07,16,15,49,26.10
2013,07,16,15,50,26.10
2013,07,16,15,51,26.10
2013,07,16,15,52,26.00
2013,07,16,15,53,26.00
2013,07,16,15,54,26.00
2013,07,16,15,55,25.90
2013,07,16,15,56,25.90
2013,07,16,15,57,25.90
2013,07,16,15,58,25.90
2013,07,16,15,59,25.90
2013,07,16,16,00,25.90
2013,07,16,16,01,25.90
2013,07,16,16,02,25.90
2013,07,16,16,03,25.90
2013,07,16,16,04,25.90
2013,07,16,16,05,25.90
2013,07,16,16,06,25.90
2013,07,16,16,07,25.90
2013,07,16,16,08,25.90
2013,07,16,16,09,25.90
2013,07,16,16,10,25.90
2013,07,16,16,11,25.90
2013,07,16,16,12,25.90
2013,07,16,16,13,25.90
2013,07,16,16,14,26.00
2013,07,16,16,15,26.00
2013,07,16,16,16,26.10
2013,07,16,16,17,26.10
2013,07,16,16,18,26.20
2013,07,16,16,19,26.20
2013,07,16,16,20,26.30
2013,07,16,16,21,26.40
2013,07,16,16,22,26.50
2013,07,16,16,23,26.50
2013,07,16,16,24,26.60
2013,07,16,16,25,26.60
2013,07,16,16,26,26.60
2013,07,16,16,27,26.60
2013,07,16,16,28,26.60
2013,07,16,16,29,26.70
2013,07,16,16,30,26.70
2013,07,16,16,31,26.70
2013,07,16,16,32,26.70
2013,07,16,16,33,26.70
2013,07,16,16,34,26.80
2013,07,16,16,35,26.80
2013,07,16,16,36,26.80
2013,07,16,16,37,26.80
2013,07,16,16,38,26.80
2013,07,16,16,39,26.80
2013,07,16,16,40,26.90
2013,07,16,16,41,26.90
2013,07,16,16,42,26.90
2013,07,16,16,43,26.90
2013,07,16,16,44,26.80
2013,07,16,16,45,26.80
2013,07,16,16,46,26.80
2013,07,16,16,47,26.80
2013,07,16,16,48,26.80
2013,07,16,16,49,26.90
2013,07,16,16,50,26.90
2013,07,16,16,51,26.80
2013,07,16,16,52,26.80
2013,07,16,16,53,26.80
2013,07,16,16,54,26.80
2013,07,16,16,55,26.80
2013,07,16,16,56,26.90
2013,07,16,16,57,26.90
2013,07,16,16,58,26.90
2013,07,16,16,59,27.00
2013,07,16,17,00,27.10
2013,07,16,17,01,27.20
2013,07,16,17,02,27.20
2013,07,16,17,03,27.30
2013,07,16,17,04,27.40
2013,07,16,17,05,27.50
2013,07,16,17,06,27.60
2013,07,16,17,07,27.60
2013,07,16,17,08,27.60
2013,07,16,17,09,27.70
2013,07,16,17,10,27.70
2013,07,16,17,11,27.70
2013,07,16,17,12,27.70
2013,07,16,17,13,27.80
2013,07,16,17,14,27.80
2013,07,16,17,15,27.80
2013,07,16,17,16,27.80
2013,07,16,17,17,27.80
2013,07,16,17,18,27.80
2013,07,16,17,19,27.80
2013,07,16,17,20,27.80
2013,07,16,17,21,27.90
2013,07,16,17,22,28.00
2013,07,16,17,23,28.20